Regional Weather Roundup
Issued by NWS

Home | Current Version | Previous Version | Text Only | Print | Product List | Glossary On
Versions: 1 2 3 4 5 6 7 8 9 10 11 12 13 14 15 16 17 18 19 20 21 22 23 24 25 26 27
000
ASUS45 KREV 280810
RWRNV
NEVADA REGIONAL WEATHER ROUNDUP
NATIONAL WEATHER SERVICE RENO NV
100 AM PDT SUN AUG 28 2016

NOTE: "FAIR" INDICATES FEW OR NO CLOUDS BELOW 12,000 FEET WITH NO
SIGNIFICANT WEATHER AND/OR OBSTRUCTIONS TO VISIBILITY.

NVZ001-003-004-280900-
WESTERN NEVADA

CITY           SKY/WX    TMP DP  RH WIND       PRES   REMARKS
RENO           CLEAR     64  35  34 SW3       30.14R
CARSON CITY    FAIR      59  32  36 CALM      30.17R
MINDEN         FAIR      54  32  43 SE3       30.17S
PYRAMID LAKE     N/A     75 N/A N/A S6          N/A
FALLON         CLEAR     65  29  25 S7        30.07R
LOVELOCK       CLEAR     78  32  18 VRB3      30.05R
$$

NVZ002-CAZ072-073-280900-
NORTHERN AND CENTRAL SIERRA

CITY           SKY/WX    TMP DP  RH WIND       PRES   REMARKS
S. LAKE TAHOE  CLEAR     48  34  58 CALM      30.27R
TRUCKEE        CLEAR     45  34  65 CALM      30.26S
SQUAW VLY 8000 NOT AVBL
MAMMOTH LAKES  FAIR      56  34  44 W7        30.31S
BRIDGEPORT       N/A     51  24  34 CALM      30.28R
$$

NVZ030-031-036-280900-
NORTHERN NEVADA

CITY           SKY/WX    TMP DP  RH WIND       PRES   REMARKS
ELKO           CLEAR     58  23  26 CALM      30.10R
WINNEMUCCA     CLEAR     52  24  33 CALM      30.07R
WENDOVER       CLEAR     63  34  34 CALM      30.04S
$$

NVZ035-037-280900-
CENTRAL NEVADA

CITY           SKY/WX    TMP DP  RH WIND       PRES   REMARKS
ELY            CLEAR     57  40  52 S12       30.22R
EUREKA           N/A     53  17  24 S6        30.18R
$$

NVZ013-014-280900-
SOUTH CENTRAL NEVADA

CITY           SKY/WX    TMP DP  RH WIND       PRES   REMARKS
TONOPAH        CLEAR     61  24  24 N6        30.17R
$$

NVZ017-020-022-280900-
SOUTHERN NEVADA

CITY           SKY/WX    TMP DP  RH WIND       PRES   REMARKS
LAS VEGAS      PTCLDY    80  47  31 N5        29.98S
N. LAS VEGAS   CLEAR     77  50  38 CALM      30.00S
NELLIS AFB     CLEAR     76  53  44 NE9       29.98S
HENDERSON      CLEAR     76  50  40 W5        30.04S
MERCURY        CLEAR     73  45  36 CALM      30.03S
$$




USA.gov is the U.S. government's official web portal to all federal, state and local government web resources and services.